Weather History for Emmonak, AK

Change the Weather History Date:

Saturday, November 9, 2013

  Actual Average Record
Temperature  
Mean Temperature 36 °F -  
Max Temperature 41 °F 25 °F 41 °F (2013)
Min Temperature 32 °F 17 °F 0 °F (2001)
Degree Days  
Heating Degree Days 28    
Moisture  
Dew Point 31 °F    
Average Humidity 78    
Maximum Humidity 87    
Minimum Humidity 52    
Precipitation  
Precipitation 0.21 in - - ()
Sea Level Pressure  
Sea Level Pressure 29.47 in    
Wind  
Wind Speed 23 mph (SSW)    
Max Wind Speed 36 mph    
Max Gust Speed 47 mph    
Visibility 8 miles    
Events      
Averages and records for this station are not official NWS values.
T = Trace of Precipitation, MM = Missing Value Source: NWS Daily Summary

Daily Weather History Graph

Daily Weather History Graph

Search for Another Location

Airport:

Trip Planner

Search our weather history database for the weather conditions in past years. The results will help you decide how hot, cold, wet, or windy it might be!

Date:

Astronomy

Nov. 09, 2013 Rise Set
Actual Time 9:59 AM AKST 5:23 PM AKST
Civil Twilight 9:05 AM AKST 6:17 PM AKST
Nautical Twilight 8:09 AM AKST 7:13 PM AKST
Astronomical Twilight 7:16 AM AKST 8:06 PM AKST
Moon 3:17 PM AKST (11/9) No Moon Set
Length of Visible Light 9h 11m
Length of Day
7h 24m
Waxing Crescent, 46% of the Moon is Illuminated
Nov 9
Waxing Crescent
Nov 9
First Quarter
Nov 17
Full
Nov 25
Last Quarter
Dec 2
New

Hourly Weather History & Observations

Time (AKST) Temp. Windchill Dew Point Humidity Pressure Visibility Wind Dir Wind Speed Gust Speed Precip Events Conditions
12:16 AM 39.2 °F 29.6 °F 35.6 °F 87% 29.61 in 2.5 mi South 19.6 mph 27.6 mph N/A   Overcast
12:36 AM 39.2 °F 29.0 °F 35.6 °F 87% 29.61 in 2.5 mi South 21.9 mph - N/A   Overcast
12:56 AM 39.2 °F 29.6 °F 35.6 °F 87% 29.61 in 3.0 mi South 19.6 mph 24.2 mph N/A   Overcast
1:16 AM 39.2 °F 29.3 °F 35.6 °F 87% 29.61 in 2.5 mi South 20.7 mph 24.2 mph N/A   Overcast
1:36 AM 39.2 °F 29.8 °F 35.6 °F 87% 29.60 in 7.0 mi South 18.4 mph 26.5 mph N/A   Overcast
1:56 AM 39.2 °F 29.6 °F 35.6 °F 87% 29.61 in 8.0 mi South 19.6 mph 26.5 mph N/A   Overcast
2:16 AM 39.2 °F 29.6 °F 35.6 °F 87% 29.60 in 8.0 mi South 19.6 mph 25.3 mph N/A   Overcast
2:36 AM 39.2 °F 29.8 °F 35.6 °F 87% 29.60 in 3.0 mi South 18.4 mph 24.2 mph N/A   Overcast
2:56 AM 39.2 °F 29.0 °F 35.6 °F 87% 29.59 in 1.8 mi South 21.9 mph 25.3 mph N/A   Overcast
3:16 AM 39.2 °F 29.6 °F 35.6 °F 87% 29.59 in 3.0 mi South 19.6 mph 28.8 mph N/A   Overcast
3:36 AM 39.2 °F 29.6 °F 35.6 °F 87% 29.58 in 7.0 mi South 19.6 mph 26.5 mph 0.02 in   Overcast
3:56 AM 39.2 °F 29.6 °F 35.6 °F 87% 29.58 in 9.0 mi South 19.6 mph 26.5 mph 0.04 in   Overcast
4:16 AM 39.2 °F 29.3 °F 35.6 °F 87% 29.57 in 9.0 mi South 20.7 mph 28.8 mph 0.02 in   Overcast
4:36 AM 39.2 °F 29.3 °F 35.6 °F 87% 29.55 in 10.0 mi South 20.7 mph 28.8 mph 0.04 in   Overcast
4:56 AM 39.2 °F 29.6 °F 35.6 °F 87% 29.55 in 10.0 mi South 19.6 mph 27.6 mph 0.05 in   Overcast
5:16 AM 39.2 °F 29.3 °F 35.6 °F 87% 29.54 in 10.0 mi South 20.7 mph 28.8 mph 0.02 in   Overcast
5:36 AM 39.2 °F 29.3 °F 35.6 °F 87% 29.53 in 10.0 mi South 20.7 mph 31.1 mph 0.03 in   Overcast
5:56 AM 39.2 °F 28.7 °F 35.6 °F 87% 29.51 in 10.0 mi South 23.0 mph 31.1 mph 0.04 in   Overcast
6:16 AM 39.2 °F 28.3 °F 35.6 °F 87% 29.50 in 10.0 mi South 25.3 mph 33.4 mph 0.01 in   Overcast
6:36 AM 39.2 °F 28.3 °F 35.6 °F 87% 29.49 in 10.0 mi South 25.3 mph 33.4 mph 0.01 in   Overcast
6:56 AM 39.2 °F 29.6 °F 35.6 °F 87% 29.49 in 5.0 mi South 19.6 mph 31.1 mph 0.02 in   Overcast
7:16 AM 39.2 °F 28.0 °F 35.6 °F 87% 29.47 in 4.0 mi South 26.5 mph 32.2 mph N/A   Overcast
7:36 AM 39.2 °F 29.0 °F 35.6 °F 87% 29.46 in 4.0 mi South 21.9 mph 28.8 mph N/A   Overcast
7:56 AM 39.2 °F 29.3 °F 35.6 °F 87% 29.45 in 4.0 mi South 20.7 mph 31.1 mph N/A   Overcast
8:16 AM 39.2 °F 28.7 °F 35.6 °F 87% 29.44 in 8.0 mi South 23.0 mph 31.1 mph N/A   Overcast
8:36 AM 39.2 °F 28.7 °F 35.6 °F 87% 29.43 in 2.5 mi South 23.0 mph 33.4 mph 0.01 in   Overcast
8:56 AM 39.2 °F 27.8 °F 35.6 °F 87% 29.42 in 3.0 mi South 27.6 mph 32.2 mph 0.01 in   Overcast
9:16 AM 39.2 °F 28.3 °F 35.6 °F 87% 29.40 in 10.0 mi South 25.3 mph 36.8 mph N/A   Overcast
9:36 AM 39.2 °F 28.0 °F 35.6 °F 87% 29.39 in 10.0 mi South 26.5 mph 33.4 mph N/A   Overcast
9:56 AM 39.2 °F 28.0 °F 35.6 °F 87% 29.39 in 8.0 mi South 26.5 mph 35.7 mph N/A   Overcast
10:16 AM 39.2 °F 28.0 °F 35.6 °F 87% 29.38 in 10.0 mi South 26.5 mph 34.5 mph N/A   Overcast
10:36 AM 39.2 °F 28.5 °F 35.6 °F 87% 29.37 in 3.0 mi South 24.2 mph 35.7 mph N/A   Overcast
10:56 AM 41.0 °F 30.0 °F 35.6 °F 81% 29.37 in 8.0 mi South 28.8 mph 38.0 mph N/A   Overcast
11:16 AM 41.0 °F 30.5 °F 35.6 °F 81% 29.36 in 10.0 mi South 26.5 mph 38.0 mph N/A   Overcast
11:36 AM 41.0 °F 30.5 °F 35.6 °F 81% 29.36 in 10.0 mi South 26.5 mph 39.1 mph N/A   Overcast
11:56 AM 41.0 °F 30.9 °F 35.6 °F 81% 29.35 in 10.0 mi South 24.2 mph 35.7 mph N/A   Overcast
12:16 PM 41.0 °F 30.7 °F 35.6 °F 81% 29.34 in 10.0 mi South 25.3 mph 34.5 mph 0.01 in   Overcast
12:36 PM 41.0 °F 30.2 °F 35.6 °F 81% 29.34 in 9.0 mi South 27.6 mph 38.0 mph 0.01 in   Overcast
12:56 PM 39.2 °F 28.0 °F 33.8 °F 81% 29.34 in 5.0 mi SSW 26.5 mph 39.1 mph 0.04 in   Overcast
1:16 PM 39.2 °F 26.8 °F 33.8 °F 81% 29.34 in 8.0 mi SSW 33.4 mph 42.6 mph N/A   Mostly Cloudy
1:36 PM 39.2 °F 29.3 °F 33.8 °F 81% 29.34 in 9.0 mi SSW 20.7 mph 33.4 mph 0.01 in   Mostly Cloudy
1:56 PM 39.2 °F 27.6 °F 30.2 °F 70% 29.34 in 9.0 mi SSW 28.8 mph 41.4 mph 0.01 in   Overcast
2:16 PM 39.2 °F 28.3 °F 30.2 °F 70% 29.34 in 7.0 mi SSW 25.3 mph 46.0 mph N/A   Overcast
2:36 PM 39.2 °F 27.6 °F 30.2 °F 70% 29.34 in 10.0 mi SSW 28.8 mph 38.0 mph N/A   Overcast
2:56 PM 39.2 °F 28.0 °F 30.2 °F 70% 29.33 in 8.0 mi South 26.5 mph 35.7 mph N/A   Mostly Cloudy
3:16 PM 39.2 °F 28.0 °F 30.2 °F 70% 29.33 in 8.0 mi SSW 26.5 mph 36.8 mph N/A   Overcast
3:36 PM 37.4 °F 25.6 °F 30.2 °F 75% 29.33 in 9.0 mi South 26.5 mph 34.5 mph N/A   Overcast
3:56 PM 37.4 °F 25.4 °F 32.0 °F 81% 29.33 in 8.0 mi South 27.6 mph 34.5 mph N/A   Overcast
4:16 PM 37.4 °F 25.4 °F 32.0 °F 81% 29.32 in 8.0 mi SSW 27.6 mph 35.7 mph N/A   Overcast
4:36 PM 39.2 °F 26.6 °F 32.0 °F 75% 29.33 in 5.0 mi SSW 34.5 mph 44.9 mph N/A   Overcast
4:56 PM 37.4 °F 24.4 °F 30.2 °F 75% 29.35 in 8.0 mi SW 33.4 mph 47.2 mph N/A   Overcast
5:16 PM 37.4 °F 24.8 °F 26.6 °F 65% 29.37 in 10.0 mi SW 31.1 mph 43.7 mph N/A   Overcast
5:36 PM 37.4 °F 24.2 °F 28.4 °F 70% 29.38 in 6.0 mi SW 34.5 mph 41.4 mph N/A   Overcast
5:56 PM 35.6 °F 22.5 °F 26.6 °F 70% 29.40 in 10.0 mi SW 29.9 mph 42.6 mph N/A   Overcast
6:16 PM 35.6 °F 21.7 °F 26.6 °F 70% 29.42 in 10.0 mi SW 34.5 mph 44.9 mph N/A   Overcast
6:36 PM 35.6 °F 22.1 °F 26.6 °F 70% 29.44 in 10.0 mi SW 32.2 mph 44.9 mph N/A   Overcast
6:56 PM 35.6 °F 21.5 °F 24.8 °F 65% 29.45 in 10.0 mi SW 35.7 mph 46.0 mph N/A   Overcast
7:16 PM 35.6 °F 22.5 °F 24.8 °F 65% 29.46 in 10.0 mi WSW 29.9 mph 40.3 mph N/A   Overcast
7:36 PM 35.6 °F 24.5 °F 24.8 °F 65% 29.49 in 10.0 mi WSW 20.7 mph 33.4 mph N/A   Overcast
7:56 PM 35.6 °F 23.4 °F 24.8 °F 65% 29.50 in 10.0 mi WSW 25.3 mph 34.5 mph N/A   Overcast
8:16 PM 35.6 °F 23.0 °F 24.8 °F 65% 29.51 in 9.0 mi SW 27.6 mph 35.7 mph N/A   Mostly Cloudy
8:36 PM 33.8 °F 21.9 °F 26.6 °F 75% 29.52 in 9.0 mi WSW 21.9 mph 26.5 mph N/A   Overcast
8:56 PM 33.8 °F 20.8 °F 24.8 °F 70% 29.54 in 2.5 mi WSW 26.5 mph 46.0 mph N/A   Mostly Cloudy
9:16 PM 33.8 °F 22.2 °F 26.6 °F 75% 29.55 in 10.0 mi SW 20.7 mph 26.5 mph N/A   Overcast
9:36 PM 32.0 °F 19.2 °F 26.6 °F 80% 29.55 in 3.0 mi SW 23.0 mph 33.4 mph N/A   Mostly Cloudy
9:56 PM 33.8 °F 21.6 °F 17.6 °F 52% 29.57 in 10.0 mi SW 23.0 mph 39.1 mph N/A   Mostly Cloudy
10:16 PM 33.8 °F 21.6 °F 19.4 °F 56% 29.58 in 10.0 mi SW 23.0 mph 35.7 mph N/A   Mostly Cloudy
10:36 PM 33.8 °F 19.9 °F 23.0 °F 65% 29.59 in 7.0 mi SW 31.1 mph 41.4 mph N/A   Overcast
10:56 PM 32.0 °F 18.9 °F 23.0 °F 69% 29.60 in 10.0 mi SW 24.2 mph 33.4 mph N/A   Mostly Cloudy
11:16 PM 33.8 °F 20.5 °F 19.4 °F 56% 29.61 in 10.0 mi WSW 27.6 mph 35.7 mph N/A   Overcast
11:36 PM 33.8 °F 22.5 °F 19.4 °F 56% 29.62 in 10.0 mi WSW 19.6 mph 38.0 mph N/A   Overcast
11:56 PM 33.8 °F 21.0 °F 19.4 °F 56% 29.62 in 10.0 mi WSW 25.3 mph 33.4 mph N/A   Overcast